Wetbulb
63.62 64.81 64.38 65.04 65.18 66.26 66.88 67.59 68.84 69.58 68.61 68.37 67.73 68.49 69.65 69.68 68.67 67.04 66.59 68.12 69.15 69.29 69.83 70.23 71.31 71.42 71.54 70.85 71.12 70.02 69.87 70.39 70.18
60.08 62.57 65.13 65.23 66.16 66.85 66.94 67.58 68.36 69.73 69.78 69.02 68.86 68.37 69.14 69.67 68.85 68.22 66.94 67.34 69.28 69.65 70.18 70.62 70.79 71.51 72.02 71.44 71.21 70.50 70.83 69.88 69.03
58.72 60.48 61.31 63.42 65.32 66.91 67.44 67.71 68.90 69.10 70.56 69.89 69.77 68.92 68.90 69.52 69.67 69.90 69.09 69.10 68.38 68.38 69.08 69.90 70.75 71.57 72.11 71.64 71.46 70.33 70.38 70.24 69.48
57.13 58.43 59.82 61.02 62.75 66.86 68.01 68.72 69.26 69.42 68.88 69.74 68.37 69.80 69.46 70.00 70.02 70.20 69.49 69.46 69.05 68.19 68.96 69.79 71.70 70.95 71.09 71.19 71.17 71.30 70.95 70.44 70.27
55.71 57.35 58.21 59.70 61.06 63.18 66.11 67.51 68.37 68.73 68.21 67.56 67.71 67.83 68.30 69.04 70.03 70.65 70.03 69.92 70.57 70.43 70.75 70.16 69.45 70.00 69.23 68.96 69.20 70.34 70.93 70.91 70.96
54.55 55.91 56.01 58.17 60.04 60.84 61.56 64.45 66.97 67.49 67.35 67.04 67.29 67.53 67.40 67.42 66.77 68.14 69.34 69.85 70.74 71.20 70.50 69.47 69.11 68.99 68.01 67.58 66.90 69.06 70.68 71.10 70.59
52.43 53.90 54.75 56.06 57.22 58.74 60.01 60.73 62.36 65.50 67.33 67.80 67.55 67.67 67.51 66.63 66.74 66.58 66.92 67.15 67.36 68.93 70.66 70.37 69.51 68.59 68.11 67.13 66.85 67.94 69.82 70.91 70.59
50.72 51.21 53.16 54.48 55.42 56.37 57.53 59.14 60.20 61.85 63.40 64.84 66.36 66.70 66.72 66.33 67.24 66.86 67.78 67.74 67.44 67.72 67.99 69.61 71.19 69.66 68.44 67.81 67.75 69.31 68.79 70.65 71.16
49.52 50.65 51.74 53.46 54.89 55.37 56.15 56.84 59.13 60.51 60.14 60.82 61.53 62.10 63.44 64.91 65.39 64.91 64.97 67.62 67.17 66.73 66.95 67.92 68.10 69.95 70.28 70.18 71.75 67.59 66.92 69.73 70.94
50.18 51.96 52.58 53.37 54.14 55.05 56.11 56.58 56.55 56.87 58.19 59.21 59.59 59.61 60.57 61.33 61.72 61.32 61.33 62.01 62.70 64.91 65.73 65.85 66.21 67.22 69.68 70.47 70.87 66.28 64.80 67.35 71.05
51.48 52.17 53.21 53.40 53.57 53.64 54.45 56.64 57.66 57.60 58.05 57.82 58.26 58.21 58.92 59.89 60.73 60.57 61.12 61.57 61.10 61.47 62.76 62.44 63.10 64.02 65.12 67.74 69.63 63.56 62.07 64.14 67.47
50.50 49.61 51.20 50.74 51.20 52.28 53.56 54.26 54.39 53.57 53.30 53.63 53.61 54.21 54.84 56.10 56.61 56.45 56.49 56.26 57.79 59.48 60.21 61.07 61.95 63.35 63.86 64.58 64.98 62.29 60.84 62.61 67.30
48.72 49.49 49.71 49.23 49.48 50.08 50.10 49.54 50.12 49.78 49.64 50.40 50.25 51.30 52.02 53.26 53.61 54.79 54.33 54.01 55.08 56.83 57.81 59.73 61.66 62.17 63.24 62.59 64.17 61.82 59.42 60.62 67.23
48.19 48.22 48.26 48.43 48.56 48.19 47.99 48.02 49.27 47.77 47.38 47.12 48.73 49.29 49.08 49.39 49.77 50.88 51.71 52.93 52.43 53.09 53.99 55.24 56.41 59.12 60.78 61.43 62.22 63.21 56.94 56.21 64.41
47.08 47.06 47.61 47.95 46.90 46.18 46.34 47.13 47.69 45.96 45.45 45.95 46.43 46.30 46.20 46.22 46.39 47.71 48.31 48.04 50.08 51.77 51.64 51.44 52.27 51.97 53.90 56.25 54.77 54.53 54.59 52.40 52.67
46.60 46.94 46.87 47.13 46.82 45.80 45.63 46.18 46.00 44.21 44.17 44.91 44.67 43.76 43.52 43.60 44.21 44.56 44.97 45.20 46.17 47.63 48.48 48.73 48.30 48.57 48.92 50.26 54.53 53.96 53.12 51.34 51.01
44.97 45.46 45.67 45.86 44.99 44.16 44.12 44.89 44.89 44.19 44.00 43.87 43.18 42.30 41.94 42.21 41.87 42.04 42.11 43.78 45.15 44.65 45.43 46.07 46.54 47.02 46.35 46.83 48.67 49.74 50.77 49.89 48.92
44.68 44.07 44.30 45.04 43.71 43.61 43.33 43.25 43.11 43.46 43.12 42.34 41.06 40.95 41.26 40.63 40.92 40.14 40.97 41.76 42.18 43.36 43.86 44.13 43.73 44.62 45.05 45.03 45.57 47.41 46.05 44.44 45.68
44.12 43.50 43.43 43.10 43.02 43.19 42.71 43.04 42.94 42.98 42.76 41.67 40.01 39.71 39.99 39.97 39.84 39.84 40.57 40.17 40.15 43.90 44.18 43.94 42.78 42.05 42.56 45.68 45.08 44.07 42.34 41.10 41.43
45.65 43.78 43.49 43.23 43.33 42.84 42.57 41.88 41.48 42.33 42.24 41.52 40.12 38.34 38.81 39.24 40.01 39.71 39.42 39.62 39.52 39.34 41.54 44.01 42.93 41.94 42.06 42.32 42.46 41.91 41.04 40.77 41.21
MSLP
1014.57 1014.99 1015.08 1015.20 1015.42 1016.04 1016.31 1016.71 1017.21 1017.49 1018.02 1018.58 1018.97 1019.19 1019.48 1019.79 1020.08 1020.48 1020.79 1020.93 1021.20 1021.15 1021.25 1021.30 1021.26 1021.42 1021.64 1021.75 1021.83 1021.99 1022.20 1022.38 1022.58
1015.72 1016.02 1016.08 1015.93 1015.91 1016.21 1016.56 1016.78 1016.90 1017.10 1017.50 1018.06 1018.57 1019.05 1019.36 1019.58 1019.91 1020.32 1020.62 1020.83 1021.04 1020.92 1020.93 1020.92 1021.07 1021.10 1021.28 1021.55 1021.75 1021.86 1022.03 1022.37 1022.46
1016.97 1016.86 1016.94 1016.83 1016.57 1016.43 1016.56 1016.96 1017.09 1017.27 1017.45 1018.04 1018.49 1019.08 1019.44 1019.78 1019.84 1020.05 1020.37 1020.62 1020.75 1020.70 1020.67 1020.80 1021.00 1021.13 1021.20 1021.34 1021.63 1021.81 1022.01 1022.27 1022.33
1017.61 1017.69 1017.85 1017.77 1017.43 1017.02 1016.87 1016.86 1017.09 1017.65 1017.94 1018.32 1018.88 1018.75 1019.35 1019.71 1019.85 1020.03 1020.28 1020.43 1020.52 1020.53 1020.48 1020.41 1020.69 1020.87 1021.18 1021.37 1021.45 1021.54 1021.86 1022.10 1022.33
1018.57 1018.74 1018.74 1018.54 1018.33 1017.86 1017.50 1017.29 1017.30 1017.81 1018.28 1018.63 1019.31 1019.40 1019.37 1019.80 1019.94 1019.96 1020.06 1020.17 1020.16 1020.02 1020.22 1020.21 1020.59 1020.74 1021.05 1021.20 1021.35 1021.48 1021.65 1021.97 1022.18
1018.72 1018.97 1019.17 1019.11 1018.77 1018.48 1018.19 1018.02 1017.89 1017.87 1018.58 1018.57 1019.21 1019.65 1020.13 1020.06 1020.26 1020.28 1020.27 1020.20 1019.98 1020.05 1020.14 1020.32 1020.45 1020.87 1020.82 1020.99 1021.07 1021.37 1021.45 1021.65 1021.83
1019.04 1018.87 1019.23 1019.28 1019.08 1018.81 1018.61 1018.68 1018.63 1018.66 1018.74 1018.84 1019.21 1019.28 1020.45 1020.38 1020.31 1020.45 1020.67 1020.64 1020.51 1020.36 1020.30 1020.44 1020.68 1020.79 1020.87 1020.90 1021.00 1021.06 1021.27 1021.55 1021.61
1019.27 1018.85 1019.26 1019.45 1019.38 1019.29 1019.21 1019.21 1019.41 1019.38 1019.42 1019.51 1019.52 1019.97 1020.35 1020.11 1020.40 1020.61 1020.85 1020.88 1020.79 1020.62 1020.45 1020.41 1020.52 1020.57 1020.62 1020.57 1020.66 1020.77 1020.91 1021.15 1021.17
1018.80 1019.05 1019.53 1019.62 1019.71 1019.79 1019.79 1019.87 1019.95 1020.12 1020.19 1020.35 1020.29 1020.60 1020.59 1020.26 1020.13 1020.75 1021.38 1021.37 1021.06 1020.87 1020.74 1020.63 1020.50 1020.42 1020.38 1020.25 1020.37 1020.46 1020.55 1020.69 1020.80
1018.76 1019.09 1019.37 1019.57 1019.82 1020.02 1020.14 1020.25 1020.48 1020.60 1020.82 1020.90 1020.95 1021.04 1021.12 1021.20 1021.47 1021.51 1021.64 1021.69 1021.50 1021.22 1020.88 1021.08 1020.90 1020.88 1020.76 1020.47 1020.37 1020.32 1020.22 1020.23 1020.30
1019.06 1019.34 1019.85 1020.09 1020.42 1020.52 1020.63 1020.81 1021.16 1021.27 1021.30 1021.35 1021.75 1021.74 1021.68 1021.84 1021.79 1021.85 1021.62 1021.79 1021.86 1021.25 1021.02 1021.08 1021.17 1021.09 1021.08 1021.05 1020.72 1020.41 1020.56 1020.47 1020.36
1019.67 1019.75 1020.49 1021.09 1021.40 1021.50 1021.56 1021.75 1022.05 1022.16 1022.45 1022.57 1022.60 1022.54 1022.48 1022.52 1022.49 1022.41 1021.97 1022.06 1021.91 1021.73 1021.66 1021.54 1020.83 1021.16 1021.13 1021.18 1021.09 1020.62 1020.36 1020.12 1020.17
1020.50 1020.80 1021.21 1021.61 1022.10 1022.30 1022.39 1022.80 1022.88 1023.04 1023.40 1023.35 1023.46 1023.56 1023.53 1023.40 1023.15 1023.12 1023.08 1022.76 1022.62 1022.06 1021.78 1021.35 1021.55 1021.21 1020.88 1020.75 1021.01 1020.67 1020.23 1020.09 1020.18
1020.85 1021.34 1021.90 1022.32 1022.66 1023.03 1023.37 1023.49 1023.42 1023.87 1024.14 1024.37 1024.40 1024.34 1024.22 1024.11 1023.89 1023.64 1023.55 1023.10 1022.73 1022.33 1021.89 1021.59 1021.50 1021.58 1021.68 1021.72 1021.53 1021.08 1020.81 1020.72 1020.41
1021.30 1021.89 1022.48 1022.83 1023.27 1023.79 1024.07 1024.09 1024.15 1024.76 1024.91 1025.04 1024.84 1024.78 1024.80 1024.76 1024.42 1024.31 1024.09 1023.70 1023.26 1022.84 1022.61 1022.28 1021.96 1022.02 1021.99 1021.71 1021.61 1021.20 1021.25 1021.08 1021.20
1021.60 1022.10 1022.72 1023.09 1023.43 1023.98 1024.35 1024.48 1024.58 1025.09 1025.45 1025.26 1025.26 1025.42 1025.55 1025.36 1025.19 1024.99 1024.72 1024.30 1023.98 1023.80 1023.45 1023.17 1023.10 1023.05 1022.81 1022.38 1022.19 1021.58 1021.25 1021.08 1021.11
1021.88 1022.49 1022.94 1023.31 1023.86 1024.46 1024.85 1024.94 1025.01 1025.21 1025.32 1025.30 1025.33 1025.70 1025.90 1025.75 1025.63 1025.54 1025.22 1025.01 1024.66 1024.55 1024.35 1024.15 1024.10 1023.87 1023.63 1023.35 1023.03 1022.65 1022.32 1021.98 1021.55
1022.31 1022.83 1023.45 1023.81 1024.27 1024.85 1025.24 1025.40 1025.52 1025.44 1025.51 1025.55 1025.87 1026.03 1026.10 1026.13 1026.00 1025.94 1025.77 1025.48 1025.30 1025.16 1024.93 1024.91 1024.80 1024.51 1024.30 1023.72 1023.24 1023.11 1023.04 1022.92 1022.44
1022.16 1022.91 1023.52 1024.09 1024.45 1024.77 1025.20 1025.38 1025.53 1025.61 1025.69 1025.76 1026.07 1026.39 1026.57 1026.59 1026.50 1026.33 1026.13 1026.01 1025.68 1025.20 1024.88 1024.74 1024.63 1024.55 1024.46 1023.86 1023.55 1023.16 1022.98 1022.67 1022.32
1021.67 1022.48 1023.11 1023.58 1023.99 1024.41 1024.90 1025.22 1025.38 1025.49 1025.76 1025.92 1026.18 1026.50 1026.76 1026.88 1026.82 1026.78 1026.73 1026.40 1025.92 1025.48 1025.01 1024.76 1024.65 1024.58 1024.43 1024.23 1023.94 1023.47 1023.00 1022.39 1021.94
Wind_Speed
7 6 7 12 13 14 13 12 13 13 12 10 8 7 7 6 7 4 4 4 3 4 4 3 4 6 6 6 5 4 4 2 2
9 9 7 4 5 9 14 12 13 14 13 11 9 8 6 6 6 6 6 6 4 4 4 3 5 6 6 6 5 5 4 3 3
7 7 7 7 4 4 6 6 3 4 6 5 5 5 5 4 5 6 6 4 6 6 4 3 5 4 5 6 5 4 4 3 3
6 7 5 5 5 4 4 6 7 5 7 7 1 6 5 5 5 6 5 5 5 6 5 6 6 6 6 6 5 4 4 4 3
6 5 4 4 4 5 3 6 9 6 8 10 3 4 5 3 4 4 5 6 6 6 7 5 6 5 6 6 5 6 5 5 4
7 6 4 2 2 3 5 4 5 9 6 10 8 6 4 7 6 6 5 4 5 4 5 5 5 6 6 6 6 6 5 5 6
5 8 6 4 4 3 4 5 6 5 4 5 7 7 3 5 6 6 5 6 6 6 3 3 5 6 6 6 5 5 5 5 6
5 8 8 6 5 5 4 5 4 5 5 4 5 5 3 5 5 5 5 3 3 5 5 5 4 5 6 6 5 5 6 6 6
8 9 7 9 8 6 5 5 4 4 5 4 6 5 4 5 6 6 5 4 4 3 4 6 5 5 6 6 5 9 11 8 6
8 10 8 7 6 6 6 6 5 7 5 5 7 7 7 6 4 3 4 4 5 3 7 5 6 7 8 5 6 9 11 12 6
9 9 8 7 7 8 7 5 6 6 6 9 8 9 10 7 6 5 6 5 5 7 5 5 4 5 6 7 5 7 8 8 6
5 9 9 8 7 8 9 10 9 10 10 9 9 9 9 8 7 7 8 7 7 5 4 4 6 4 5 6 7 9 9 5 3
8 10 9 9 7 8 10 6 7 10 8 9 9 8 7 8 7 6 6 6 5 3 3 5 4 6 5 8 5 11 10 6 3
8 9 9 6 8 9 6 6 8 9 7 8 5 6 6 7 7 6 8 6 5 5 6 5 5 5 5 6 7 8 16 17 7
11 10 8 7 9 7 5 6 9 7 7 3 5 6 6 7 7 7 6 7 7 7 7 7 7 8 6 6 8 11 13 15 14
11 11 7 6 9 8 6 6 7 8 2 5 5 6 6 6 5 6 7 6 7 6 7 7 6 6 6 7 7 7 13 15 16
9 8 9 7 8 7 6 5 6 6 5 5 6 6 5 5 5 5 5 4 5 4 5 5 5 5 6 6 6 7 8 9 11
9 7 6 7 8 7 7 6 6 4 4 5 5 4 4 5 4 4 5 5 3 3 3 3 4 5 5 6 7 7 11 10 9
10 9 7 7 7 8 7 6 6 5 4 5 4 4 3 3 3 4 4 3 4 7 7 9 10 10 5 6 9 13 14 14 15
11 8 9 9 9 8 7 7 6 5 4 5 4 3 2 2 2 2 2 3 3 5 4 7 7 8 9 10 12 14 15 16 16
Wind_Direction
103 89 188 182 176 185 178 189 182 176 178 184 181 180 179 171 168 173 206 203 197 186 199 197 186 194 207 207 191 184 178 172 184
67 47 38 89 144 192 184 191 186 186 180 187 178 183 178 186 167 172 204 206 210 210 214 215 220 205 199 212 213 195 180 183 203
68 68 32 34 69 97 149 160 109 144 155 167 162 158 188 198 189 194 198 179 203 220 229 230 228 225 212 199 221 214 195 201 192
55 45 40 20 1 31 96 138 113 94 89 88 268 144 164 206 218 213 206 204 196 221 227 215 216 207 209 210 199 218 211 232 230
93 60 35 45 20 0 105 139 139 142 126 102 94 56 92 49 274 241 231 220 223 207 227 203 206 211 207 215 214 206 208 232 212
123 109 78 82 114 57 56 52 112 126 121 109 90 64 22 76 52 23 345 306 268 240 237 218 202 214 217 221 221 218 218 220 222
124 114 98 80 68 70 57 52 48 35 114 135 119 95 277 67 71 54 35 37 19 28 350 268 206 221 230 226 239 234 225 227 231
115 103 107 98 87 76 53 66 73 66 42 49 101 132 163 119 78 63 45 55 20 345 12 18 315 228 228 244 229 232 228 225 226
110 103 107 109 109 104 98 93 85 82 79 54 68 64 81 50 84 70 32 23 26 34 10 355 354 317 260 236 235 241 232 222 221
134 128 120 112 106 97 93 88 89 85 83 86 74 74 55 55 59 68 59 22 23 50 49 7 12 13 353 303 267 259 243 234 231
134 120 115 95 81 71 52 57 69 65 55 64 62 64 59 40 36 24 47 45 40 11 23 18 17 10 352 331 336 335 311 295 266
124 109 104 91 77 71 75 78 79 72 59 58 54 48 46 34 29 32 30 22 8 13 11 330 22 346 338 326 311 300 298 321 275
110 110 116 109 94 83 80 60 69 72 60 56 46 32 31 25 20 15 20 10 348 334 336 14 335 330 332 329 318 284 310 320 292
123 127 120 104 90 95 97 81 83 75 67 55 41 30 27 27 21 17 14 3 356 346 352 358 3 9 348 336 332 349 16 18 347
134 130 124 119 107 102 99 94 92 84 72 54 45 43 42 27 20 17 9 6 4 8 8 11 22 9 351 355 358 2 24 21 18
147 141 130 113 111 98 70 86 105 99 82 66 68 60 35 24 29 18 4 11 12 10 9 14 5 4 353 347 335 347 12 359 357
134 138 134 126 114 107 101 88 83 104 97 70 60 56 37 25 25 12 14 10 11 6 7 11 1 351 347 340 334 340 346 345 339
151 142 132 140 138 137 144 140 124 124 106 86 72 51 21 8 11 13 5 4 358 354 333 3 343 328 323 327 332 335 325 323 329
156 155 148 144 145 142 156 149 140 144 127 102 94 62 10 343 347 346 348 347 333 321 315 317 319 320 312 320 296 309 319 319 316
163 153 156 163 168 162 157 156 149 152 139 116 101 88 28 30 33 351 333 333 337 334 321 281 289 298 297 300 294 313 318 319 322